Temp
83 91 94 94 80 81 67 72 76 71 71 92 93 89 85 85 80 67 91 96 96 92 87 85 81 81 81 81 81 80 80 80 80 80 80 80 80 81 81 81 81 81 82 81 81 81 81 81 81
94 99 101 91 78 64 56 78 71 77 79 94 94 90 85 79 89 89 90 99 98 94 90 87 80 80 81 81 80 80 80 80 80 80 80 80 80 81 81 81 81 81 82 82 82 81 81 81 81
91 99 90 86 81 71 68 79 79 81 91 94 90 93 89 83 92 90 95 97 99 95 88 82 80 80 80 80 80 80 80 80 80 80 80 80 80 80 80 81 81 82 82 82 82 81 81 81 81
98 99 94 80 77 81 79 78 84 81 87 90 91 82 91 96 94 95 97 98 97 92 85 81 80 80 80 80 80 80 80 80 80 80 81 80 80 80 80 81 81 81 82 82 82 81 81 81 81
103 95 83 81 72 85 84 85 89 82 71 83 89 80 79 87 96 96 96 99 81 91 88 84 80 80 80 80 80 80 80 80 80 80 81 81 80 80 80 81 81 81 82 82 82 81 81 80 80
92 95 79 78 72 83 93 92 94 82 84 88 78 68 64 74 89 95 97 98 99 94 89 85 80 79 79 80 80 79 79 80 80 80 80 80 80 80 80 81 81 81 81 81 81 81 80 80 79
90 86 81 84 83 86 90 97 82 84 82 86 88 70 65 73 84 97 98 99 99 98 92 86 85 81 79 79 79 79 79 79 79 80 80 80 80 80 80 80 80 80 80 80 80 80 80 79 79
96 91 83 87 84 83 93 95 96 90 86 96 99 78 72 78 90 98 99 98 99 99 95 91 86 86 84 82 79 79 79 79 79 79 79 79 79 79 79 79 79 80 80 80 79 79 79 79 78
102 85 80 83 85 86 95 92 98 99 93 96 97 91 90 94 94 98 96 80 92 97 97 95 92 89 89 88 82 79 80 79 79 79 79 79 81 83 82 81 81 80 80 79 79 79 79 79 78
93 84 85 92 93 91 94 93 94 93 92 92 94 94 96 97 97 95 95 88 92 72 69 72 94 92 92 93 82 83 83 83 82 83 81 80 82 82 88 85 81 81 80 79 79 79 79 79 81
94 86 92 93 93 96 93 92 95 89 85 90 90 94 97 96 96 84 86 70 73 70 69 66 81 91 95 89 85 86 87 83 81 83 82 82 84 84 86 82 80 80 79 80 81 80 80 71 70
88 93 93 93 94 94 91 94 88 89 89 96 96 97 98 97 96 96 78 69 70 70 70 73 79 88 83 75 73 81 89 88 86 84 84 81 81 80 81 85 85 78 78 76 72 69 71 69 68
90 91 93 94 93 94 94 90 88 87 94 97 97 96 96 95 95 95 92 78 71 70 78 75 79 86 84 83 82 83 85 86 85 84 82 80 78 77 78 80 81 81 83 82 75 71 71 69 69
93 92 92 93 92 92 89 88 89 89 94 93 93 93 94 94 92 90 89 89 85 86 86 87 86 85 86 79 83 77 83 83 84 81 81 82 78 76 77 77 78 78 79 80 80 79 77 72 72
93 85 89 90 90 88 91 83 83 89 92 90 90 92 92 89 88 85 87 86 85 83 83 83 83 82 80 82 81 82 83 86 81 79 80 81 78 77 77 77 77 75 76 79 79 79 79 78 81
87 87 79 87 89 89 87 75 84 89 88 87 88 89 88 85 84 85 86 85 84 85 80 81 84 83 79 78 80 82 83 83 81 81 79 83 80 79 76 76 74 74 74 75 75 76 76 76 77
83 75 78 80 90 88 84 77 83 88 86 84 86 86 85 83 82 82 84 84 83 81 79 78 79 78 79 79 79 80 79 79 81 81 79 81 83 81 76 76 75 75 74 74 73 72 71 72 73
74 75 80 78 84 84 82 80 82 85 85 83 84 84 82 81 80 82 83 82 81 80 79 79 78 77 78 78 77 78 79 79 81 80 79 81 81 80 77 76 76 76 74 74 72 71 71 71 72
81 79 77 82 86 81 79 80 81 83 83 83 82 81 81 80 82 82 82 82 80 79 78 77 76 75 76 76 76 77 76 77 79 80 81 81 81 80 78 75 74 75 74 74 73 72 69 69 71
80 76 76 82 86 81 78 77 83 81 81 82 81 80 80 81 81 81 81 81 79 77 77 74 74 74 74 74 74 75 75 76 76 76 79 80 79 79 77 74 73 74 72 72 71 72 68 69 70
77 75 75 74 79 82 78 74 78 81 81 81 81 81 81 79 79 79 80 79 80 78 77 75 75 74 74 73 73 72 73 69 70 71 72 72 71 71 71 74 72 72 72 70 70 71 70 66 68
69 79 77 74 72 65 79 62 75 75 75 77 78 79 80 80 81 81 80 80 80 81 81 79 78 76 76 74 71 70 69 67 68 68 67 70 69 68 72 72 72 71 71 69 70 72 69 68 65
72 79 75 74 70 69 70 66 72 75 71 74 77 79 79 80 80 80 81 81 82 82 81 80 79 76 75 73 71 70 68 70 70 71 69 69 70 71 74 72 71 70 70 70 69 69 68 68 66
80 76 76 75 71 59 68 67 67 70 73 77 79 80 80 79 80 81 82 82 81 83 81 77 74 73 75 74 72 69 67 67 68 68 68 69 70 71 71 73 71 70 69 68 69 68 67 67 67
78 69 57 58 58 57 72 66 69 73 75 75 74 77 78 79 80 80 79 80 78 76 75 76 73 71 73 72 72 70 68 67 65 66 68 67 69 69 68 67 67 67 67 67 65 65 66 65 66
70 68 58 47 51 58 69 61 62 73 76 77 77 77 78 78 79 78 78 77 77 76 74 74 73 71 72 71 70 70 69 69 68 67 67 67 67 67 66 66 66 66 66 67 66 63 63 64 63
69 64 71 59 62 57 64 64 70 73 73 75 76 77 76 75 74 74 76 75 75 74 72 71 69 70 70 70 68 68 68 67 67 65 62 63 61 64 63 63 63 64 64 64 63 61 63 63 62
71 75 60 61 47 47 59 60 60 67 69 72 72 73 75 73 73 74 75 74 72 73 70 70 72 71 70 70 69 69 67 67 65 64 60 60 60 60 60 60 61 61 61 61 61 61 62 61 61
68 66 66 64 60 49 48 57 70 68 70 70 72 74 72 72 72 73 76 75 74 75 75 72 70 69 68 67 65 64 63 64 63 62 62 61 61 60 60 60 60 60 60 60 60 59 60 61 61
73 68 67 56 52 59 55 54 74 72 74 73 72 73 73 74 75 76 76 74 72 71 69 68 67 67 67 65 64 63 63 62 60 60 60 60 58 60 59 60 59 59 59 58 59 58 60 59 59
MSLP
1009.75 1009.37 1008.96 1007.91 1007.18 1006.07 1007.87 1008.67 1009.93 1007.96 1006.46 1004.83 1004.67 1004.58 1005.44 1006.62 1006.72 1008.81 1009.28 1009.32 1009.96 1010.80 1012.02 1012.76 1013.23 1013.41 1013.64 1014.16 1014.64 1014.76 1014.96 1015.31 1015.76 1016.01 1016.27 1016.36 1016.35 1016.41 1016.61 1016.81 1016.89 1016.90 1016.98 1017.07 1017.11 1017.19 1017.24 1017.30 1017.32
1008.97 1008.13 1007.03 1006.47 1005.80 1006.97 1008.83 1008.43 1009.76 1008.06 1006.17 1004.63 1004.80 1005.29 1005.91 1007.22 1007.64 1008.48 1009.21 1008.94 1009.24 1010.36 1011.49 1012.60 1013.18 1013.46 1013.79 1014.22 1014.66 1015.00 1015.36 1015.40 1015.90 1016.12 1016.21 1016.51 1016.78 1016.76 1016.81 1016.96 1017.03 1016.97 1017.02 1017.07 1017.12 1017.18 1017.27 1017.36 1017.45
1009.15 1008.15 1006.95 1005.35 1005.06 1006.24 1007.75 1007.47 1007.62 1007.30 1006.13 1004.73 1004.85 1005.84 1006.49 1007.61 1007.92 1008.89 1009.49 1009.50 1009.39 1010.07 1011.58 1012.68 1013.19 1013.63 1014.03 1014.22 1014.57 1015.11 1015.53 1015.76 1015.83 1016.21 1016.42 1016.61 1016.74 1016.96 1016.95 1017.01 1017.16 1017.20 1017.16 1017.16 1017.18 1017.19 1017.32 1017.34 1017.39
1007.74 1006.55 1006.02 1005.02 1004.71 1005.56 1005.94 1007.18 1006.64 1006.43 1006.44 1006.41 1005.82 1007.13 1008.04 1008.41 1008.44 1009.08 1009.64 1009.70 1009.75 1010.39 1011.55 1012.40 1013.03 1013.63 1014.10 1014.38 1014.62 1014.98 1015.51 1015.75 1015.86 1016.18 1016.48 1016.63 1016.83 1016.88 1016.99 1017.11 1017.13 1017.27 1017.18 1017.21 1017.29 1017.31 1017.30 1017.34 1017.35
1006.76 1006.09 1004.71 1004.24 1005.67 1004.85 1005.16 1005.38 1005.65 1006.68 1009.58 1008.28 1007.03 1009.10 1010.73 1010.98 1010.21 1009.93 1009.85 1009.42 1010.40 1009.99 1011.60 1012.51 1013.10 1013.72 1014.19 1014.52 1014.87 1015.18 1015.35 1015.64 1016.02 1016.20 1016.38 1016.60 1016.85 1016.86 1017.00 1017.09 1017.16 1017.29 1017.24 1017.20 1017.33 1017.35 1017.27 1017.37 1017.30
1006.15 1005.04 1004.24 1003.04 1003.87 1003.93 1003.29 1004.23 1004.71 1006.76 1007.69 1007.58 1009.06 1011.59 1015.57 1013.00 1011.43 1010.48 1009.99 1009.62 1009.54 1010.26 1011.30 1012.45 1013.24 1013.65 1013.97 1014.38 1014.89 1015.16 1015.55 1015.72 1016.05 1016.18 1016.42 1016.60 1016.82 1016.99 1016.98 1016.89 1017.07 1017.23 1017.25 1017.11 1017.17 1017.20 1017.26 1017.14 1017.22
1005.73 1004.62 1003.59 1002.60 1002.56 1002.69 1003.06 1003.77 1004.93 1006.06 1006.47 1007.11 1008.35 1011.73 1014.46 1012.39 1010.99 1009.75 1009.71 1009.65 1009.69 1010.03 1011.14 1012.35 1013.04 1013.55 1013.95 1014.25 1014.67 1015.09 1015.45 1015.75 1016.05 1016.25 1016.37 1016.62 1016.78 1016.87 1016.93 1017.03 1016.89 1017.00 1017.22 1017.09 1017.03 1017.03 1017.10 1017.13 1017.16
1004.92 1004.39 1003.22 1002.05 1001.79 1002.48 1003.28 1003.57 1004.43 1005.19 1006.14 1006.42 1006.51 1009.53 1012.06 1011.49 1009.73 1008.99 1009.14 1009.72 1010.27 1010.48 1010.83 1011.54 1012.57 1013.15 1013.58 1014.01 1014.30 1014.70 1015.01 1015.46 1015.77 1016.15 1016.44 1016.65 1016.71 1016.63 1016.57 1016.65 1016.73 1016.61 1016.87 1016.87 1016.82 1016.95 1017.00 1017.14 1017.13
1004.84 1004.24 1002.86 1002.44 1002.00 1002.79 1003.41 1003.38 1003.86 1004.74 1005.16 1005.67 1006.16 1007.72 1009.24 1009.49 1009.08 1008.55 1009.10 1010.80 1010.83 1010.86 1010.56 1011.03 1011.56 1012.21 1012.41 1013.04 1014.07 1014.71 1015.09 1015.52 1015.89 1016.07 1016.31 1016.41 1016.37 1016.11 1016.19 1016.06 1015.77 1015.83 1016.04 1016.26 1016.50 1016.75 1016.90 1016.76 1016.75
1004.38 1003.75 1002.91 1002.95 1002.52 1002.61 1003.27 1004.00 1004.42 1004.72 1005.10 1005.71 1006.24 1007.32 1008.07 1008.38 1008.26 1008.44 1008.76 1010.72 1010.92 1013.42 1014.04 1014.45 1011.12 1011.36 1011.73 1012.62 1014.17 1014.63 1014.97 1015.01 1015.31 1015.62 1015.73 1015.91 1015.86 1015.58 1015.25 1015.30 1015.35 1014.92 1015.25 1015.54 1016.10 1016.24 1016.31 1017.10 1017.37
1003.79 1003.34 1003.12 1003.52 1004.03 1003.57 1003.84 1004.51 1005.28 1005.84 1006.28 1006.58 1006.87 1006.94 1007.25 1007.77 1008.08 1009.68 1010.45 1013.75 1014.08 1014.08 1014.19 1012.97 1012.23 1010.62 1010.95 1012.34 1013.40 1014.12 1014.15 1014.74 1014.84 1014.82 1015.25 1015.20 1015.16 1015.11 1014.85 1014.90 1015.13 1015.34 1015.09 1015.37 1015.78 1016.67 1016.96 1017.39 1017.72
1003.91 1003.69 1004.15 1004.33 1004.83 1004.46 1004.55 1005.11 1006.33 1007.14 1007.16 1007.06 1007.25 1007.56 1007.26 1007.33 1007.85 1008.56 1010.76 1011.27 1012.78 1014.94 1012.91 1013.72 1014.50 1012.97 1012.99 1013.54 1016.32 1014.31 1013.45 1013.58 1014.41 1014.55 1015.01 1014.97 1014.87 1015.05 1014.96 1014.43 1014.62 1014.71 1014.55 1015.16 1015.94 1016.67 1015.22 1017.16 1017.27
1004.02 1004.23 1004.91 1005.10 1005.26 1005.18 1005.44 1005.78 1006.85 1007.81 1007.85 1007.81 1007.76 1007.87 1007.95 1008.20 1008.56 1009.34 1010.65 1012.44 1012.92 1013.77 1012.75 1014.06 1012.28 1012.96 1013.08 1014.55 1013.96 1013.90 1013.74 1013.82 1014.31 1014.62 1015.07 1015.17 1015.08 1015.15 1015.07 1014.71 1014.78 1014.72 1014.38 1014.57 1015.49 1015.43 1016.07 1017.28 1016.93
1004.45 1004.72 1004.96 1005.32 1005.49 1005.93 1006.04 1006.61 1007.23 1008.10 1008.22 1008.34 1008.62 1008.80 1009.01 1009.40 1009.81 1010.55 1011.30 1011.68 1012.67 1012.74 1012.46 1012.80 1013.54 1013.43 1013.47 1014.32 1013.83 1014.35 1014.21 1014.40 1014.48 1014.84 1015.39 1015.25 1015.33 1015.41 1015.42 1015.25 1015.16 1014.91 1014.88 1014.85 1014.76 1015.02 1015.21 1015.99 1015.94
1005.08 1005.26 1005.26 1005.38 1005.71 1006.10 1006.60 1006.90 1007.58 1008.43 1008.48 1008.79 1009.23 1009.53 1010.13 1010.94 1011.50 1012.20 1012.47 1012.65 1013.14 1013.66 1013.81 1013.31 1013.18 1013.98 1013.97 1014.03 1014.24 1014.22 1014.41 1014.30 1014.67 1015.22 1015.39 1015.27 1015.38 1015.64 1015.63 1015.62 1015.48 1015.46 1015.35 1015.37 1014.99 1014.98 1014.80 1014.90 1014.77
1005.19 1005.03 1004.62 1005.03 1005.72 1006.19 1007.05 1007.05 1008.02 1008.75 1008.90 1009.13 1009.85 1010.28 1011.07 1012.30 1013.19 1013.50 1013.53 1013.47 1013.55 1013.66 1014.13 1014.30 1014.29 1014.34 1014.76 1014.79 1014.50 1014.34 1014.42 1014.46 1014.75 1014.93 1015.07 1015.02 1015.36 1015.79 1015.85 1015.76 1015.82 1015.76 1015.75 1015.53 1015.48 1015.51 1015.45 1015.55 1015.51
1005.05 1004.72 1004.36 1005.21 1005.66 1005.90 1006.83 1007.21 1008.55 1009.16 1009.60 1009.89 1010.40 1011.13 1011.97 1013.14 1014.10 1014.50 1014.50 1014.49 1014.64 1014.85 1015.02 1015.07 1015.33 1015.55 1015.61 1015.58 1015.23 1014.98 1015.11 1014.94 1014.86 1014.91 1014.99 1015.28 1015.35 1015.73 1015.90 1015.73 1015.85 1015.90 1015.80 1015.75 1015.97 1016.09 1016.10 1016.03 1015.60
1004.77 1004.89 1004.27 1004.80 1005.41 1006.27 1006.55 1007.10 1008.42 1009.22 1009.67 1010.35 1010.99 1011.84 1012.74 1013.73 1014.60 1015.13 1015.29 1015.38 1015.50 1015.71 1015.93 1016.10 1016.33 1016.55 1016.45 1016.14 1015.96 1015.63 1015.38 1015.23 1014.99 1015.02 1015.07 1015.39 1015.42 1015.59 1015.84 1015.75 1015.72 1015.67 1015.73 1015.78 1016.08 1016.16 1016.10 1015.90 1015.32
1005.98 1005.72 1005.31 1005.11 1005.63 1006.43 1007.08 1007.35 1007.83 1008.98 1009.96 1010.43 1011.31 1012.30 1013.19 1014.08 1014.83 1015.40 1015.76 1016.05 1016.22 1016.30 1016.39 1016.60 1016.81 1017.00 1016.85 1016.50 1016.31 1015.87 1015.78 1015.39 1015.06 1014.96 1015.06 1015.24 1015.54 1015.67 1015.87 1015.92 1015.84 1015.62 1015.72 1015.93 1016.05 1016.13 1016.23 1015.98 1015.39
1006.71 1006.47 1006.05 1005.75 1005.68 1006.54 1007.45 1007.60 1007.57 1008.61 1009.81 1010.78 1011.60 1012.56 1013.38 1014.02 1014.77 1015.45 1015.94 1016.27 1016.48 1016.80 1016.97 1017.18 1017.31 1017.45 1017.41 1017.30 1017.06 1016.68 1016.34 1015.87 1015.70 1015.42 1015.20 1015.32 1015.59 1015.73 1015.83 1016.11 1016.16 1016.05 1016.05 1016.08 1016.09 1015.95 1016.12 1015.96 1015.67
1007.49 1007.35 1006.88 1006.93 1006.92 1006.98 1007.34 1007.30 1007.54 1008.40 1009.87 1011.20 1012.12 1012.95 1013.66 1014.32 1014.94 1015.44 1015.86 1016.17 1016.41 1016.66 1016.95 1017.37 1017.67 1017.82 1017.76 1017.80 1017.51 1017.14 1016.68 1016.32 1016.18 1015.94 1015.92 1016.01 1016.32 1016.50 1016.35 1016.03 1016.17 1016.16 1016.09 1016.02 1016.00 1015.88 1015.91 1015.87 1015.66
1008.73 1008.75 1008.63 1008.37 1008.32 1007.85 1007.40 1006.91 1006.89 1008.22 1010.01 1011.21 1012.01 1012.71 1013.40 1014.08 1014.56 1015.05 1015.50 1015.81 1016.19 1016.29 1016.48 1016.68 1016.99 1017.33 1017.61 1017.87 1018.04 1017.84 1017.59 1017.17 1016.80 1016.48 1016.19 1016.04 1016.08 1016.67 1015.64 1015.50 1015.95 1015.82 1015.76 1015.84 1016.05 1015.93 1015.75 1015.71 1015.87
1009.78 1009.70 1009.63 1009.29 1009.00 1008.74 1008.21 1007.77 1007.11 1008.37 1009.69 1010.65 1011.55 1012.35 1013.33 1013.97 1014.53 1014.87 1015.07 1015.39 1015.67 1015.82 1015.93 1016.13 1016.41 1016.86 1017.21 1017.58 1017.98 1017.98 1017.69 1017.29 1017.02 1016.71 1016.34 1016.00 1015.70 1015.56 1015.36 1015.33 1015.27 1015.35 1015.48 1015.58 1015.68 1015.69 1015.65 1015.75 1015.75
1010.39 1010.07 1009.52 1009.20 1009.06 1008.61 1007.66 1007.69 1007.66 1008.59 1009.41 1010.08 1011.31 1011.98 1012.84 1013.73 1014.38 1014.57 1014.73 1014.97 1015.19 1015.37 1015.53 1016.02 1016.36 1016.59 1016.87 1016.93 1017.20 1017.63 1017.59 1017.50 1017.28 1016.93 1016.65 1016.33 1016.14 1015.76 1015.10 1014.89 1014.89 1014.93 1015.15 1015.46 1015.63 1015.49 1015.55 1015.71 1015.61
1010.13 1010.41 1010.03 1008.74 1008.89 1008.33 1008.13 1008.50 1008.39 1009.61 1010.71 1011.52 1012.38 1012.79 1013.24 1013.86 1014.18 1014.21 1014.49 1014.78 1015.13 1015.62 1015.91 1016.31 1016.25 1016.33 1016.30 1016.27 1016.40 1016.78 1016.92 1016.99 1017.04 1016.85 1016.45 1016.09 1015.67 1015.38 1015.09 1015.21 1015.38 1015.37 1015.33 1015.35 1015.52 1015.41 1015.27 1015.35 1015.36
1011.09 1011.42 1011.44 1010.99 1010.25 1009.32 1008.95 1008.76 1010.59 1010.98 1011.88 1012.44 1012.68 1012.92 1013.73 1013.95 1014.13 1014.68 1015.04 1015.34 1015.59 1015.69 1016.01 1016.03 1016.01 1015.86 1015.83 1015.79 1015.95 1016.19 1016.22 1016.17 1016.07 1016.22 1016.11 1016.07 1015.87 1015.63 1015.32 1015.17 1015.09 1015.20 1015.18 1015.02 1015.06 1015.17 1015.05 1015.03 1015.01
1011.73 1011.78 1012.48 1012.55 1012.24 1011.42 1010.42 1010.96 1011.35 1011.80 1012.04 1012.37 1012.64 1013.16 1013.62 1014.14 1014.81 1015.14 1015.21 1015.32 1015.24 1015.38 1016.02 1015.98 1015.97 1016.26 1016.10 1015.43 1015.52 1015.34 1015.46 1015.47 1015.58 1015.69 1016.10 1016.38 1016.35 1016.11 1015.75 1015.68 1015.49 1015.35 1015.26 1015.12 1015.03 1014.87 1014.70 1014.52 1014.45
1012.40 1012.57 1012.66 1012.88 1012.92 1012.20 1011.17 1011.11 1011.36 1011.79 1012.30 1012.67 1013.11 1013.40 1013.72 1014.37 1014.91 1015.01 1015.03 1014.97 1015.67 1015.71 1015.76 1015.43 1015.46 1015.51 1015.44 1015.31 1015.29 1015.19 1015.10 1015.20 1015.37 1015.58 1015.64 1015.90 1015.91 1015.83 1015.78 1015.61 1015.45 1015.26 1015.09 1015.18 1014.95 1014.49 1014.22 1014.10 1013.75
1012.35 1012.35 1012.88 1013.32 1013.74 1013.39 1012.74 1011.61 1011.87 1012.53 1012.76 1012.97 1013.28 1013.61 1014.17 1014.68 1015.11 1015.06 1014.67 1014.66 1014.73 1015.10 1015.09 1015.28 1015.61 1015.71 1015.70 1015.71 1015.76 1015.71 1015.52 1015.31 1015.48 1015.47 1015.20 1015.30 1015.45 1015.49 1015.32 1015.33 1015.22 1014.94 1014.70 1014.47 1014.29 1014.11 1013.92 1013.62 1013.44
1012.45 1012.62 1012.86 1013.46 1014.12 1013.70 1013.48 1012.87 1012.42 1012.69 1012.79 1012.95 1013.35 1013.89 1014.40 1014.71 1014.60 1014.48 1014.52 1014.65 1014.91 1015.14 1015.72 1015.89 1015.91 1015.82 1015.83 1015.98 1015.96 1015.72 1015.19 1015.11 1015.01 1014.99 1014.98 1014.79 1014.95 1015.00 1014.94 1014.83 1014.69 1014.52 1014.26 1014.03 1013.72 1013.57 1013.50 1013.23 1013.03
Wind_Speed
9 11 9 9 8 2 17 10 5 10 5 12 15 13 21 17 13 7 7 10 18 17 13 13 12 12 13 10 8 10 11 11 9 8 6 6 8 9 8 7 7 8 8 8 8 8 7 7 7
11 16 10 8 12 5 5 11 11 2 12 11 9 16 15 16 17 16 11 6 20 17 14 12 13 12 12 12 10 9 9 11 9 8 8 6 5 7 7 6 6 7 7 7 7 6 5 5 4
12 13 8 8 4 3 4 11 14 13 21 10 10 18 9 10 13 9 11 9 13 17 16 14 13 12 11 12 12 10 9 9 9 8 7 7 6 6 6 6 5 5 5 5 5 5 4 4 4
7 8 8 11 3 8 6 3 4 23 12 12 16 13 18 12 11 16 14 12 10 20 16 16 15 12 11 11 12 12 10 9 9 9 8 7 7 6 6 5 5 4 4 4 4 4 4 4 4
9 9 14 9 10 11 10 19 11 25 9 9 3 19 21 23 12 10 6 3 18 14 17 15 16 13 11 9 9 9 10 10 9 9 8 8 7 7 6 6 5 5 5 5 5 5 5 5 5
10 13 16 12 14 23 2 13 4 23 18 16 19 21 11 25 10 8 9 5 6 17 15 13 13 13 13 11 9 8 8 9 9 9 8 8 7 7 7 7 6 6 6 6 7 7 7 6 7
13 14 18 21 9 9 16 6 16 12 17 13 18 13 9 18 14 12 8 8 9 10 15 12 11 11 13 13 11 10 9 9 8 8 8 8 8 7 6 6 6 7 8 8 8 9 9 8 8
13 14 23 15 6 11 11 2 15 12 7 1 10 12 8 18 11 10 13 11 8 8 15 13 11 11 10 10 13 12 10 9 9 8 7 7 7 8 9 9 9 10 10 10 10 10 9 9 10
13 12 14 16 13 7 6 1 10 5 11 7 7 21 15 11 14 12 8 20 13 6 12 14 14 13 12 12 11 9 10 8 5 6 8 7 6 10 12 12 14 15 14 13 12 11 11 12 13
10 12 14 3 15 8 10 11 14 10 14 16 16 23 21 13 8 3 5 16 11 18 17 24 15 13 14 10 10 7 8 7 7 8 8 7 8 7 9 10 19 15 16 13 13 13 14 9 8
12 8 9 9 12 13 13 4 16 17 13 11 9 12 11 11 6 15 18 20 21 8 8 21 21 5 9 12 8 6 6 5 6 6 7 6 5 4 4 3 2 5 10 6 7 5 5 8 10
15 6 12 12 10 8 4 12 16 9 9 8 14 9 7 6 2 10 17 14 23 21 16 21 17 4 11 13 8 5 5 5 5 4 2 2 3 4 5 2 0 5 4 5 8 5 5 5 8
13 7 5 4 0 8 8 10 14 8 8 10 7 4 12 16 18 16 18 12 17 14 12 8 13 3 8 5 5 3 2 1 5 4 4 4 5 4 5 4 4 5 6 1 6 5 4 8 11
10 3 4 3 9 2 4 3 3 6 2 7 5 7 11 12 18 19 18 15 11 9 10 12 10 6 5 7 4 2 3 3 1 5 4 5 4 4 5 5 4 5 6 6 6 3 3 7 7
5 7 8 6 4 4 7 8 6 1 2 5 6 8 11 17 19 17 16 13 13 10 10 9 7 11 10 6 2 3 3 4 4 5 3 4 5 5 5 4 4 5 6 7 5 5 5 5 4
12 14 13 14 7 8 2 4 12 2 2 5 6 8 13 17 17 14 15 13 13 11 10 9 10 6 9 9 7 4 3 1 3 3 4 3 6 3 5 3 4 5 4 4 4 5 7 7 6
10 11 11 11 11 10 8 6 9 2 3 5 4 8 11 13 14 13 14 14 13 14 13 11 9 11 7 4 6 5 3 4 2 1 4 1 3 5 4 2 3 3 4 3 5 5 4 6 7
12 7 13 12 14 6 8 9 13 6 2 4 6 8 10 11 13 13 14 12 11 10 8 7 6 6 5 5 4 4 2 4 2 3 4 2 1 6 3 2 3 1 4 3 4 4 5 5 6
12 13 13 12 8 1 8 15 11 12 3 7 5 7 7 8 9 10 11 11 11 10 8 9 10 9 8 5 5 4 4 4 3 3 5 4 3 4 1 4 4 4 3 2 2 2 5 4 5
13 15 13 12 3 4 7 16 10 12 8 3 2 7 6 8 9 8 9 9 7 7 6 8 7 8 8 8 8 7 6 5 4 4 2 2 2 3 3 4 4 4 4 5 6 1 3 3 5
12 15 11 13 16 12 10 17 14 15 11 9 4 6 7 5 5 5 7 7 6 5 5 6 4 5 5 6 6 7 7 6 5 5 6 6 8 8 9 5 4 4 3 4 5 3 4 4 3
10 14 15 13 12 12 16 13 8 19 12 10 9 7 4 4 2 3 4 4 4 2 3 4 4 3 5 5 6 8 6 6 5 5 4 2 6 9 9 5 7 6 4 5 6 7 4 3 4
12 14 13 13 12 13 15 10 5 17 12 14 12 8 3 1 5 9 7 7 6 7 5 3 1 4 3 4 6 8 9 7 7 8 9 7 6 6 6 8 9 8 5 6 7 6 4 4 3
9 13 15 14 11 11 17 14 4 6 6 6 10 8 4 0 6 8 11 5 8 10 10 6 6 4 3 4 4 7 7 8 9 9 9 7 8 10 8 6 5 6 5 6 7 6 6 6 5
5 10 8 4 9 9 7 2 7 12 12 12 10 11 10 9 11 13 13 14 11 12 9 8 6 7 5 5 4 6 6 6 9 10 10 10 8 7 6 5 5 7 6 6 9 9 6 6 6
10 5 6 8 9 14 18 7 8 15 10 6 6 8 7 12 11 14 16 13 10 10 12 11 9 8 8 7 7 5 6 7 7 9 8 8 9 8 8 9 8 8 10 9 7 8 11 8 8
11 5 7 5 10 11 11 11 11 7 3 2 7 6 11 13 14 15 17 15 12 9 13 14 13 13 12 7 9 8 8 6 5 4 3 4 7 8 9 9 9 9 12 13 12 8 11 13 12
5 7 4 5 3 7 10 12 8 5 12 13 13 12 13 13 16 16 15 11 12 11 11 11 9 11 11 11 11 10 7 8 5 4 4 5 6 6 8 9 10 11 11 12 12 10 10 14 12
6 7 6 1 5 7 9 5 10 7 10 10 11 14 13 13 13 15 14 13 8 7 12 11 13 15 15 13 12 11 9 8 9 9 8 8 9 10 10 11 12 13 13 11 11 12 12 14 16
7 11 9 3 7 9 9 10 4 3 7 11 12 14 18 18 18 17 17 13 14 13 14 14 14 13 13 13 15 16 12 9 9 10 9 8 9 10 11 12 13 13 12 12 12 11 12 14 16
Wind_Direction
262 235 226 252 256 70 341 129 145 75 23 39 48 48 73 44 38 95 162 141 133 103 122 113 109 106 110 114 125 131 135 131 135 133 126 118 118 121 116 112 111 111 110 109 109 109 106 104 106
290 285 248 271 254 60 269 41 166 137 202 127 93 73 71 62 86 112 121 132 118 122 124 120 115 107 112 119 124 128 137 135 136 138 139 134 126 124 126 130 131 130 131 128 123 120 123 121 118
267 270 282 247 267 325 69 40 33 264 303 26 98 57 25 109 74 96 117 88 97 119 106 115 109 112 122 127 128 130 137 136 138 148 149 147 143 145 145 142 141 144 143 142 143 144 153 161 166
271 237 250 248 42 139 121 122 189 218 2 350 121 88 74 66 81 112 133 146 153 104 115 123 119 123 127 133 140 143 147 148 150 155 159 163 170 163 163 166 163 182 175 179 184 184 188 196 199
243 269 266 287 18 311 165 184 230 76 147 346 110 68 44 19 79 102 119 166 92 130 119 119 122 127 129 131 142 148 150 152 160 163 169 174 184 177 182 186 190 207 207 208 220 224 218 235 235
282 263 279 281 173 236 204 183 75 64 46 348 66 77 349 292 287 150 155 129 74 98 111 128 127 132 136 141 148 148 155 157 167 169 177 183 191 196 199 197 213 226 231 225 233 232 238 234 246
262 279 290 299 139 174 62 33 89 87 72 301 129 122 192 262 264 150 161 154 147 137 115 128 140 143 144 146 153 161 164 167 171 179 183 194 201 209 218 231 222 232 245 243 242 242 241 241 245
252 281 282 282 30 92 68 73 111 115 156 332 9 127 166 229 246 156 166 160 149 167 135 145 144 159 161 163 165 168 169 177 180 188 198 212 218 222 218 223 234 231 237 241 243 247 246 249 250
275 271 280 357 57 71 82 354 83 28 109 60 76 97 140 182 226 178 135 94 259 232 148 149 159 162 178 161 166 166 173 178 198 210 218 218 236 221 233 225 224 212 217 225 234 245 251 248 250
242 267 292 15 19 72 99 14 33 9 57 47 60 128 145 150 194 225 180 157 164 33 9 347 154 162 181 155 138 174 172 183 189 206 196 209 242 245 222 220 219 211 212 218 229 229 238 269 300
239 279 41 40 9 1 56 70 43 20 42 38 16 48 123 151 207 113 49 46 43 36 37 327 296 167 161 106 152 186 178 189 196 202 181 218 234 263 244 255 218 214 216 222 224 291 294 42 11
270 36 3 49 22 331 6 79 72 34 44 26 50 5 21 16 62 84 106 101 81 268 168 200 266 304 81 90 321 330 162 158 182 149 170 241 268 277 309 313 172 212 236 192 105 247 274 74 88
268 98 328 60 286 3 34 73 95 69 36 30 56 21 17 12 8 13 45 117 141 207 207 191 212 41 57 127 162 88 104 107 117 133 57 30 355 18 350 1 328 326 329 125 159 231 191 183 199
5 1 197 148 128 253 199 75 57 88 41 84 19 26 27 13 21 16 10 30 86 60 36 32 57 29 23 51 21 95 311 84 103 67 56 42 20 20 349 340 330 353 11 355 345 265 193 199 200
283 265 216 200 168 219 285 173 176 110 91 64 25 40 41 39 26 10 4 25 39 75 45 26 29 34 7 52 285 241 135 160 108 111 94 72 52 9 340 319 0 22 358 326 329 347 348 331 302
259 231 233 149 160 135 209 299 100 108 34 76 52 43 56 52 33 15 17 18 31 31 68 34 18 57 23 353 344 346 60 30 107 146 146 133 148 100 306 14 38 9 314 331 355 8 359 341 331
208 253 230 155 183 151 179 139 111 129 76 57 47 57 59 53 46 32 31 33 34 39 29 37 21 21 8 338 325 359 0 300 95 282 115 83 89 95 307 122 85 347 295 349 24 11 344 327 319
336 282 271 153 165 168 251 158 145 128 138 112 66 66 60 58 55 41 37 45 41 44 42 45 36 32 336 314 304 286 167 281 266 236 102 148 246 138 22 332 137 221 317 48 31 346 318 298 291
324 310 317 315 117 129 286 290 146 127 226 145 103 84 89 84 76 60 41 44 43 36 48 32 31 19 344 325 334 337 333 244 205 213 150 122 21 19 13 329 1 350 343 7 227 293 309 319 302
317 303 293 289 212 162 288 277 239 146 172 92 109 113 78 72 77 63 57 39 57 72 39 45 16 29 353 7 336 341 333 328 330 336 63 144 251 248 262 13 341 317 348 333 315 218 290 286 304
316 344 305 337 338 317 254 248 256 150 135 128 117 101 119 86 21 40 23 52 32 60 101 83 50 20 351 6 340 343 335 341 347 345 348 10 352 322 333 326 304 303 280 280 283 233 277 288 294
303 12 336 315 302 287 304 298 279 146 158 162 156 171 103 81 12 356 352 21 356 6 318 100 109 76 352 2 337 324 301 289 282 287 267 263 234 237 241 234 240 250 266 289 294 288 269 249 293
312 337 302 291 284 287 282 267 257 141 172 179 181 173 167 112 341 337 310 316 320 296 310 312 73 56 42 9 325 316 308 306 320 308 317 317 311 265 269 269 260 250 245 251 251 269 285 263 268
304 287 293 269 256 261 261 229 102 129 175 99 144 163 142 278 294 287 293 329 308 318 318 18 3 9 328 284 281 277 302 305 305 307 300 294 285 276 268 289 288 314 245 259 268 265 265 258 274
270 333 315 290 234 237 51 317 313 96 64 48 26 10 14 344 307 306 330 329 353 348 358 333 325 305 289 282 268 272 274 287 296 289 285 280 276 278 291 1 336 323 310 273 271 269 256 251 240
295 339 292 321 316 328 336 304 79 76 79 65 9 355 311 282 327 327 319 323 335 338 324 309 307 294 294 284 274 277 257 265 264 273 283 308 306 311 312 307 326 331 319 300 272 268 265 249 238
10 305 31 327 281 272 274 76 95 89 105 256 350 344 316 17 5 346 334 318 307 324 346 343 324 310 283 291 281 254 259 265 276 315 41 346 313 317 318 321 301 309 313 300 285 276 267 256 242
278 344 272 195 284 300 318 325 64 42 10 349 336 323 313 6 339 328 312 320 346 300 297 281 296 326 332 328 340 331 321 322 6 336 320 293 280 279 289 291 290 291 289 284 291 280 265 267 254
189 226 215 16 309 294 294 300 72 23 346 332 325 339 352 332 309 289 312 324 342 317 332 346 356 349 339 342 334 322 315 327 320 310 301 299 293 284 285 285 288 282 274 275 277 280 279 268 263
299 292 327 301 278 290 321 291 82 311 291 352 349 351 343 334 330 323 328 350 354 351 14 353 339 335 332 329 317 306 310 316 300 294 304 300 290 285 284 279 278 285 282 283 269 280 281 274 266